This demonstration page uses our WeatherBlox Daily Observations layout. Learn more.

Left ArrowRight Arrow

41.55636, -103.73856

Hourly Observations for October 4, 2021

Temp ( °F °C ) Dew Point ( °F °C ) Humidity (%) Winds ( mph kmh ) Pressure ( in mb ) Visibility ( mi km ) Precip ( " mm )
12:58 am 00:58 Clear 52 10.9 19 -7 28 28 W 5 7 30.11 1020 10 16 0.00 0.00
1:58 am 01:58 Clear 48 9.1 20 -6.8 32 32 W 5 7 30.11 1020 10 16 0.00 0.00
2:58 am 02:58 Clear 46 7.9 20 -6.9 35 35 WNW 7 11 30.11 1020 10 16 0.00 0.00
3:58 am 03:58 Clear 46 7.9 19 -7.4 33 33 W 6 9 30.11 1020 10 16 0.00 0.00
4:58 am 04:58 Clear 42 5.7 19 -7.1 40 40 SW 6 9 30.12 1020 10 16 0.00 0.00
5:58 am 05:58 Clear 42 5.5 19 -7 40 40 W 3 6 30.15 1021 10 16 0.00 0.00
6:58 am 06:58 Sunny 40 4.5 20 -6.6 45 45 WSW 5 7 30.18 1022 10 16 0.00 0.00
7:58 am 07:58 Sunny 46 7.5 22 -5.7 39 39 WNW 6 9 30.21 1023 10 16 0.00 0.00
8:58 am 08:58 Sunny 54 12 23 -4.9 31 31 SW 5 7 30.21 1023 10 16 0.00 0.00
9:58 am 09:58 Sunny 67 19.3 25 -4 20 20 WNW 5 7 30.18 1022 10 16 0.00 0.00
10:58 am 10:58 Sunny 71 21.9 26 -3.6 18 18 NW 7 11 30.17 1022 10 16 0.00 0.00
11:58 am 11:58 Sunny 74 23.6 24 -4.2 15 15 Calm 30.15 1021 10 16 0.00 0.00
12:58 pm 12:58 Sunny 79 25.9 23 -4.8 13 13 Calm 30.12 1020 10 16 0.00 0.00
1:58 pm 13:58 Sunny 80 26.8 17 -8.1 9 9 Calm 30.10 1019 10 16 0.00 0.00
2:58 pm 14:58 Sunny 81 27 19 -7.1 10 10 W 3 6 30.09 1019 10 16 0.00 0.00
3:58 pm 15:58 Sunny 82 27.6 20 -6.7 10 10 N 3 6 30.07 1018 10 16 0.00 0.00
4:58 pm 16:58 Sunny 81 27.4 20 -6.8 10 10 E 10 17 30.09 1019 10 16 0.00 0.00
5:58 pm 17:58 Sunny 76 24.5 19 -7.4 11 11 E 10 17 30.10 1019 10 16 0.00 0.00
6:58 pm 18:58 Clear 73 22.6 19 -7.5 13 13 SSE 14 22 30.11 1020 10 16 0.00 0.00
7:58 pm 19:58 Clear 69 20.4 17 -8.1 14 14 SSE 17 28 30.12 1020 10 16 0.00 0.00
8:58 pm 20:58 Clear 65 18.4 20 -6.7 18 18 SSE 21 33 30.13 1020 10 16 0.00 0.00
9:58 pm 21:58 Clear 63 17.4 22 -5.7 20 20 S 21 33 30.11 1020 10 16 0.00 0.00
10:58 pm 22:58 Clear 63 17 22 -5.5 21 21 S 22 35 30.09 1019 10 16 0.00 0.00
11:58 pm 23:58 Clear 62 16.7 24 -4.3 24 24 S 22 35 30.09 1019 10 16 0.00 0.00

Powered by AerisWeather